Find Kosmos-2382

NORAD ID: 26987 Int'l Des: 2001-053 Owner: KVR/IACG Country: RU Constellation: GLONASS operational
MEOCIRCULAR

リアルタイム位置

3D地球を読み込み中...

Kosmos-2382について

説明を読み込み中...

次回通過

Passes for default location (London). Set your location on the main map for personalized predictions.

高度履歴

Loading altitude history...

軌道要素

1 26987U 01053A 26104.27847198 -.00000000 00000-0 00000+0 0 9990
2 26987 64.0457 59.7070 0003539 219.5378 241.9496 2.13104863189598
Epoch: Apr 14, 2026 • Age: 51 hours

現在のステータス

高度 19147.8 km
速度 3.95 km/s
衛星直下点 -55.23°S, 24.34°E
打ち上げ日 Dec 1, 2001
運用期間 24.3 years
タイプ other

技術仕様

分類 Payload
質量 1450.00 kg
乾燥質量 1200.00 kg
総質量 1450.00 kg
長さ 4.00 m
直径 1.50 m
スパン 7.80 m
形状 Cyl + Ant + 2 Pan
製造者 NPOPMR
バスタイプ Uragan
フェーズステータス In Orbit
所有者/国 KVR/IACG/RU

Most Searched